SCP
0 0 1 1 1 1 1 2 2 2 3 2 2 2 2 2 2 1 1 1 1 1 1 1 1 1 1 1 1 1 2 2 1 1 1 1 1 2 2 2 1 1 0
0 0 1 1 1 1 1 1 2 2 2 2 2 2 2 2 2 2 1 1 1 1 1 1 1 1 1 1 1 1 1 1 1 1 1 1 1 2 2 1 1 1 1
0 0 0 1 1 1 1 1 2 2 2 2 2 2 2 2 2 1 1 1 1 1 1 1 1 1 1 1 1 1 1 1 1 1 1 0 1 1 1 1 1 1 1
0 0 0 1 1 1 1 1 2 2 2 2 2 2 2 2 2 1 1 1 1 1 1 1 1 1 1 1 1 1 1 1 1 0 0 0 0 1 1 1 1 1 1
0 0 0 1 1 1 1 2 2 3 2 3 3 3 2 2 2 1 1 1 1 2 1 1 1 1 1 1 1 1 1 0 0 0 0 0 0 0 1 1 1 0 0
1 0 0 1 1 1 1 2 3 3 3 3 2 2 2 2 2 1 1 2 2 2 1 1 1 1 1 1 1 1 0 0 0 0 0 0 0 0 1 0 0 0 0
1 1 1 1 1 2 2 2 3 3 2 2 2 2 2 2 1 1 1 2 2 2 1 1 1 1 1 1 1 1 0 0 0 0 0 0 0 1 1 0 0 0 0
1 1 1 1 1 2 2 2 2 2 2 2 1 1 1 1 1 1 1 2 2 1 1 1 1 1 1 1 1 1 1 0 0 0 0 0 0 1 1 0 0 0 0
1 1 1 1 1 1 2 2 1 1 1 1 1 1 1 1 1 1 1 1 1 1 1 1 1 1 1 1 1 1 1 0 0 0 0 0 0 0 0 0 0 0 0
1 1 0 1 1 1 1 1 1 1 1 1 1 1 1 1 1 1 1 1 1 1 1 1 1 1 1 1 1 1 1 0 0 0 0 0 0 0 0 0 0 0 0
1 1 0 0 1 1 1 1 1 1 1 1 1 1 1 1 1 1 1 1 1 1 2 2 1 1 1 1 1 1 1 0 0 0 0 0 0 0 0 0 0 0 0
1 1 0 0 0 0 1 1 1 1 1 1 1 1 1 1 1 1 1 1 1 1 2 2 1 1 1 0 0 0 0 0 0 0 0 0 0 0 0 0 0 0 0
1 1 1 0 0 0 0 0 0 1 1 1 1 1 1 1 1 1 1 1 1 1 1 1 1 1 0 0 0 0 0 0 0 0 0 0 0 0 0 1 1 1 1
1 1 1 0 0 0 0 0 0 1 1 1 1 1 1 0 0 1 1 1 1 1 0 0 0 0 0 0 0 0 0 0 0 0 0 0 0 0 1 1 1 1 1
1 1 1 0 0 0 0 0 1 1 1 1 1 1 0 0 0 0 0 0 0 0 0 0 0 0 0 0 0 0 0 0 0 0 0 0 0 0 1 1 1 1 1
1 1 1 0 0 0 0 0 0 1 1 1 0 0 0 0 0 0 0 0 0 0 0 0 0 0 0 0 0 0 0 0 0 0 0 0 0 0 1 1 1 1 1
1 1 1 0 0 0 0 0 0 0 0 0 0 0 0 0 0 0 0 0 0 0 0 0 0 0 0 0 0 0 0 0 0 1 1 0 0 0 1 1 1 1 1
1 1 1 1 0 0 0 0 0 0 0 0 0 0 0 0 0 0 0 0 0 0 0 0 0 0 1 1 0 0 0 0 1 1 1 0 0 0 0 1 1 1 1
2 1 1 1 1 0 0 0 0 0 0 0 0 0 0 0 0 0 0 0 0 0 0 0 0 0 1 1 0 0 0 0 0 1 1 0 0 0 0 1 1 1 1
2 2 1 1 1 1 1 0 0 0 0 0 0 0 0 0 0 0 0 0 0 0 0 0 0 0 1 0 0 0 0 0 0 1 1 0 0 0 0 0 1 1 1
2 2 1 1 1 1 1 0 0 0 0 0 0 0 0 0 0 0 0 0 0 1 1 1 1 1 1 1 0 0 0 0 0 0 0 0 0 0 0 0 1 1 1
2 2 2 1 1 1 1 1 0 0 0 0 0 0 0 0 0 0 0 0 0 1 1 1 1 1 1 1 1 1 0 0 0 0 0 0 0 1 1 1 1 1 1
2 2 2 1 1 1 1 1 1 1 0 0 0 0 0 0 0 0 0 0 0 0 1 1 1 1 1 1 1 1 1 1 0 0 0 1 1 1 1 1 1 1 1
2 2 2 1 1 1 1 1 1 1 1 1 1 1 0 0 0 0 0 0 0 0 1 1 1 1 1 1 1 1 1 1 1 1 1 1 1 1 1 1 1 1 1
2 2 2 1 1 1 2 1 1 1 1 1 1 1 1 0 0 0 0 0 0 0 1 1 1 1 1 1 1 1 1 1 1 1 1 1 1 1 1 1 1 1 1
2 2 2 1 2 2 2 2 2 1 1 1 1 1 1 0 0 1 0 0 0 0 1 1 1 1 1 1 1 2 1 1 1 1 1 1 1 1 1 1 1 1 1
Wind_Speed
2 1 4 8 9 9 9 10 12 14 16 17 17 19 19 19 19 18 18 18 18 18 17 16 16 16 16 15 15 14 14 14 13 14 14 14 14 14 14 14 13 10 14
1 1 6 8 9 9 10 11 13 15 16 16 17 19 19 19 19 18 18 18 18 17 17 16 16 16 15 15 15 14 14 13 13 13 14 13 13 13 13 13 12 9 13
3 3 6 8 9 9 10 11 13 14 15 16 17 18 19 19 19 18 18 17 17 17 16 16 16 16 15 15 15 14 13 13 13 13 12 7 9 12 12 12 13 13 13
4 4 5 9 9 9 10 11 13 14 15 16 17 18 18 18 18 18 17 17 17 17 16 16 16 16 15 15 14 13 13 13 13 12 7 6 6 11 12 12 12 12 12
4 3 5 9 9 9 10 11 12 14 15 16 16 17 18 18 18 18 17 17 17 16 16 15 15 15 14 14 13 13 12 12 11 9 6 5 5 9 11 12 12 12 11
4 3 4 9 9 9 9 11 11 13 14 14 15 16 16 17 17 17 17 16 16 15 15 15 14 14 13 13 12 11 11 11 9 6 6 5 4 8 10 11 11 11 10
3 2 2 7 7 8 9 10 11 12 13 13 14 15 15 15 15 15 15 16 16 15 14 14 13 13 12 11 11 10 10 10 6 5 5 4 4 8 9 10 10 10 10
4 2 2 5 7 7 9 10 11 12 12 13 13 14 14 14 14 14 14 15 15 14 13 13 12 12 11 10 9 9 9 8 7 5 5 4 6 7 8 8 8 9 9
3 2 2 2 4 6 8 9 10 11 11 12 13 13 13 14 14 14 13 14 14 13 12 11 11 10 9 9 8 8 7 8 5 4 4 3 6 8 8 8 8 9 9
2 2 2 2 2 2 3 8 9 10 11 12 12 12 13 13 13 13 11 12 13 12 11 11 10 9 8 8 7 6 6 6 4 4 3 4 7 8 9 9 8 8 8
1 1 1 2 2 2 2 5 6 8 9 9 9 11 9 5 5 7 9 11 11 11 10 10 9 8 7 6 6 5 4 2 4 3 3 5 7 8 8 8 8 8 8
2 1 1 1 1 2 2 2 2 3 3 4 4 5 4 4 4 5 7 9 9 10 9 9 8 7 5 3 3 3 2 3 2 2 3 6 7 8 8 8 8 8 8
3 3 2 2 2 2 2 2 1 2 3 3 4 4 4 3 3 3 2 3 4 5 4 4 4 3 3 2 1 1 2 2 2 2 3 6 7 8 8 8 8 8 8
4 3 3 2 2 2 2 2 2 3 3 2 3 4 3 2 2 2 2 2 2 2 3 2 2 2 2 1 1 1 1 1 2 2 3 7 7 8 8 9 9 9 9
5 4 4 3 3 3 3 2 2 3 3 3 3 3 4 3 3 3 2 2 2 2 2 2 2 1 1 1 1 1 1 2 3 3 2 7 8 8 9 9 10 10 10
6 5 4 4 4 4 3 2 2 2 3 3 3 3 4 3 3 3 3 2 2 2 2 2 2 1 0 0 1 2 2 2 3 3 3 5 8 9 9 10 10 11 11
6 5 5 5 4 4 4 3 3 3 3 3 3 3 4 4 4 3 3 2 2 2 2 2 2 1 1 1 1 1 2 2 3 3 3 3 4 7 9 10 10 11 11
5 5 5 5 5 5 4 3 3 3 3 3 3 3 4 4 4 4 3 3 3 3 2 2 2 1 1 1 1 1 1 2 3 3 3 3 3 3 6 10 10 10 12
6 6 5 5 6 5 4 3 3 3 3 3 3 3 4 4 5 4 3 3 3 3 2 3 2 2 1 1 1 1 1 2 2 3 3 4 4 4 4 6 10 10 12
6 5 5 5 5 5 4 3 2 2 2 2 3 3 4 4 5 4 3 3 4 3 2 2 2 2 1 1 1 1 1 2 2 2 3 3 3 5 5 5 5 7 11
6 6 6 6 5 5 3 3 3 2 2 2 3 4 5 5 5 5 4 4 4 3 3 4 2 2 1 1 1 1 2 2 2 2 2 2 3 4 5 5 4 4 4
8 7 6 6 6 6 4 3 3 3 2 2 2 3 5 5 6 6 5 4 4 3 3 3 3 2 1 2 2 1 2 3 2 1 1 2 3 3 4 5 5 5 5
9 9 9 8 6 6 5 3 3 2 2 1 2 2 3 5 6 5 6 5 4 4 4 4 4 4 2 2 2 3 2 2 2 2 1 2 2 3 3 3 5 5 6
10 9 8 7 6 6 6 5 5 4 4 4 3 2 3 4 4 5 5 5 5 4 4 4 4 4 4 3 2 2 2 2 1 2 2 1 2 3 3 3 3 4 5
9 9 8 7 6 6 6 7 6 4 3 2 2 3 3 2 3 4 5 4 5 4 5 4 4 4 4 4 3 2 2 1 2 2 3 2 2 2 2 3 3 3 4
7 7 7 7 6 6 6 6 7 6 5 4 3 3 3 2 2 4 5 5 5 4 5 5 5 5 4 4 4 3 3 3 3 3 3 3 2 2 2 2 3 3 3
Wind_Direction
277 269 122 114 113 111 111 118 123 131 135 136 138 138 137 136 134 133 132 131 130 129 127 128 127 126 126 126 124 122 120 121 121 121 123 124 123 122 119 117 116 115 117
182 143 126 119 115 111 109 111 120 127 131 132 135 138 136 136 135 135 134 132 131 129 128 127 126 126 125 124 123 122 123 123 126 125 125 125 126 125 123 122 121 122 122
90 101 125 123 119 115 112 114 121 125 128 132 134 136 136 136 136 136 134 133 131 129 129 126 124 125 124 123 123 124 125 124 124 122 117 114 123 127 128 128 127 125 125
95 93 114 115 115 113 112 114 121 125 128 131 134 136 137 137 138 136 135 134 132 130 129 127 126 126 123 122 122 123 124 124 123 118 110 113 122 131 132 132 131 128 128
85 86 110 115 112 111 114 118 121 125 129 131 134 136 138 137 138 138 137 136 134 131 129 127 126 125 124 123 123 123 125 125 123 115 114 112 114 134 135 136 135 133 131
85 83 110 117 118 116 115 119 123 126 130 132 134 136 137 137 137 137 138 137 133 132 130 128 128 126 126 126 126 127 128 129 119 115 118 121 127 140 141 140 139 138 137
87 74 104 113 115 117 117 121 125 129 130 132 134 136 138 138 139 140 139 137 135 134 134 132 129 129 129 129 128 128 129 129 121 123 126 131 141 147 145 145 145 145 145
97 78 82 117 117 118 121 123 122 126 128 133 136 138 141 141 142 142 142 139 136 136 135 132 131 131 130 128 125 124 129 131 129 130 133 142 154 156 153 152 153 156 157
82 72 53 79 111 122 127 128 127 129 130 134 135 140 144 144 145 145 143 142 141 141 139 136 133 133 130 129 125 122 129 136 127 134 144 151 163 164 164 164 163 166 165
79 66 46 48 73 95 120 132 132 132 134 137 139 140 146 145 145 146 144 147 147 147 145 142 138 139 134 129 127 127 128 127 133 141 145 166 175 178 176 175 174 173 170
117 66 64 55 68 82 106 137 134 136 137 137 139 140 133 120 125 138 145 152 152 151 150 146 145 142 132 128 128 125 115 122 145 150 160 180 186 189 187 185 183 182 180
188 190 137 122 114 106 126 103 95 111 111 107 103 110 103 103 118 129 147 156 157 155 152 149 147 138 116 105 114 109 104 135 148 164 181 190 195 199 198 194 194 192 189
190 188 174 164 137 119 105 104 97 107 101 102 109 109 107 103 109 108 115 142 140 138 125 129 119 103 106 110 107 117 141 146 166 186 196 199 202 206 208 202 201 200 197
175 189 180 164 142 131 117 106 96 108 109 113 120 120 119 118 121 122 118 121 107 105 107 104 102 104 110 124 137 157 183 187 191 198 207 211 210 211 213 208 203 204 205
182 190 183 170 159 142 129 134 121 119 123 122 120 127 133 135 138 137 127 115 115 118 123 129 123 121 122 143 189 192 224 226 216 210 212 217 215 214 216 214 211 211 211
189 190 179 172 166 149 149 153 138 137 134 128 137 146 144 143 141 135 134 134 137 141 143 145 151 147 160 190 234 226 222 218 217 211 212 221 221 216 218 218 217 218 219
187 183 176 174 160 159 165 170 155 150 146 151 159 157 157 155 151 145 144 154 162 150 148 140 135 132 178 210 247 244 227 222 218 217 216 220 225 223 223 223 221 221 224
175 175 182 183 167 169 167 163 156 154 155 164 161 161 170 167 162 154 159 175 167 154 152 151 151 141 163 197 253 263 244 233 228 226 222 220 220 228 229 229 227 226 228
178 176 178 178 169 172 166 156 154 150 163 169 163 168 176 175 170 164 172 176 160 156 165 177 160 162 177 198 241 263 257 246 241 237 232 227 221 223 227 235 235 233 234
174 173 176 176 170 162 153 139 137 147 169 166 174 182 178 177 175 169 173 175 164 161 171 173 169 165 174 184 261 313 300 276 258 245 244 237 227 229 229 233 238 242 240
171 171 180 180 175 162 154 158 162 181 181 176 187 186 185 184 178 173 176 171 170 175 184 177 165 167 180 146 97 350 330 306 272 254 247 242 240 237 230 230 234 240 247
180 181 186 190 180 178 175 164 159 156 169 177 181 178 184 184 181 182 180 182 177 174 178 180 168 163 183 164 146 106 334 329 318 274 249 239 246 244 240 235 231 235 241
186 189 193 193 185 178 163 140 123 107 101 138 171 186 189 184 185 185 182 183 182 180 189 192 180 174 183 195 176 158 172 245 300 310 274 254 256 249 249 243 237 237 236
194 191 190 187 183 175 164 163 165 173 187 194 182 186 186 182 182 182 179 182 185 188 193 200 189 181 173 192 201 200 193 181 194 302 309 288 270 258 253 249 244 241 235
191 187 186 182 183 177 173 174 175 186 189 166 156 172 187 184 184 184 182 184 190 194 198 202 191 189 187 189 192 184 188 200 197 207 271 291 294 271 255 246 242 239 235
186 184 182 179 186 182 181 184 184 186 177 168 174 181 191 190 191 193 190 191 194 196 201 205 197 196 201 202 203 195 188 186 194 196 231 257 274 280 265 251 242 240 237